Simultaneous Nadir Overpasses (SNOs) Predictions

Prediction of SNOs between AQUA and METOP-B Satellite Orbit:

Table of predicted SNOs for the next 14.0 days since TLE Epoch: 1/6/2024
Index Date (AQUA) Time (AQUA) Lat,Lon (AQUA) SZA (AQUA ) Date (METOP-B) Time (METOP-B) Lat,Lon (METOP-B) SZA (METOP-B ) Distance(km) Time Diff (sec)
1 01/08/2024 06:01:55 -75.19, -93.83 82.55 01/08/2024 06:00:52 -75.18, -93.71 82.55 3.56 63
2 01/08/2024 06:51:20 75.23, 73.69 97.50 01/08/2024 06:51:31 75.23, 73.78 97.50 2.53 11
3 01/08/2024 07:40:55 -75.85,-120.45 81.85 01/08/2024 07:41:59 -75.87,-116.91 81.90 96.32 64
4 01/10/2024 22:13:56 -74.69, 24.48 83.45 01/10/2024 22:12:49 -74.62, 21.77 83.44 79.97 67
5 01/10/2024 23:03:30 75.19,-169.19 97.08 01/10/2024 23:03:17 75.20,-169.28 97.10 2.73 13
6 01/10/2024 23:52:54 -75.26, -1.75 82.85 01/10/2024 23:53:57 -75.28, -1.71 82.84 2.05 63
7 01/13/2024 15:15:41 75.19, -52.20 96.66 01/13/2024 15:15:03 75.20, -52.22 96.68 1.72 38
8 01/13/2024 16:05:05 -75.26, 115.25 83.27 01/13/2024 16:05:44 -75.24, 115.22 83.30 2.59 39
9 01/16/2024 07:27:51 75.19, 64.80 96.18 01/16/2024 07:26:49 75.20, 64.82 96.20 1.67 62
10 01/16/2024 08:17:15 -75.26,-127.75 83.75 01/16/2024 08:17:30 -75.24,-127.73 83.77 2.00 15
11 01/16/2024 09:06:52 75.91, 38.01 96.95 01/16/2024 09:07:56 75.90, 41.63 96.85 98.05 64
12 01/18/2024 23:39:52 74.78,-177.11 95.23 01/18/2024 23:38:45 74.71,-179.52 95.23 70.92 67
13 01/19/2024 00:29:24 -75.26, -10.73 84.28 01/19/2024 00:29:16 -75.24, -10.71 84.29 2.09 8



Historial Predications of SNOs between AQUA and METOP-B
